Comox, British Columbia

11:31 PM PST on February 05, 2016 (GMT -0800)
Comox

Weather History for CYQQ - June, 2013

Change the Weather History Date:

Monday, June 10, 2013

  Actual Average (WUND) Record (WUND)
Temperature  
Mean Temperature 56 °F -  
Max Temperature 66 °F 69 °F - (-1)
Min Temperature 47 °F 52 °F - (-1)
Degree Days  
Heating Degree Days 8    
Growing Degree Days 6 (Base 50)    
Moisture  
Dew Point 45 °F    
Average Humidity 62    
Maximum Humidity 82    
Minimum Humidity 37    
Precipitation  
Precipitation 0.00 in 0.05 in - ()
Sea Level Pressure  
Sea Level Pressure 29.96 in    
Wind  
Wind Speed 6 mph ()    
Max Wind Speed 15 mph    
Max Gust Speed -    
Visibility 19.9 miles    
Events Rain    
Averages and records for this station are not official NWS values.
T = Trace of Precipitation, MM = Missing Value Source: Averaged Metar Reports

Daily Weather History Graph

Daily Weather History Graph

Search for Another Location

Airport or City:

Trip Planner

Search our weather history database for the weather conditions in past years. The results will help you decide how hot, cold, wet, or windy it might be!

Date:

Astronomy

Jun. 10, 2013 Rise Set
Actual Time 5:12 AM PDT 9:26 PM PDT
Civil Twilight 4:28 AM PDT 10:10 PM PDT
Nautical Twilight 3:25 AM PDT 11:13 PM PDT
Astronomical Twilight 1:51 AM PDT 12:46 AM PDT
Moon 7:14 AM PDT (6/10) 10:45 PM PDT (6/10)
Length of Visible Light 17h 41m
Length of Day
16h 14m
Waxing Crescent, 4% of the Moon is Illuminated
Jun 10
Waxing Crescent
Jun 16
First Quarter
Jun 23
Full
Jun 29
Last Quarter
Jul 8
New

Hourly Weather History & Observations

Time (PDT) Temp. Dew Point Humidity Pressure Visibility Wind Dir Wind Speed Gust Speed Precip Events Conditions
12:00 AM 53.6 °F 42.8 °F 67% 30.05 in 20.0 mi NW 6.9 mph - N/A   Partly Cloudy
1:00 AM 51.8 °F 42.8 °F 71% 30.05 in 20.0 mi WNW 4.6 mph - N/A   Clear
2:00 AM 51.8 °F 42.8 °F 71% 30.04 in 20.0 mi NW 8.1 mph - N/A   Clear
3:00 AM 50.0 °F 42.8 °F 76% 30.04 in 20.0 mi NW 6.9 mph - N/A   Clear
4:00 AM 50.0 °F 42.8 °F 76% 30.04 in 20.0 mi WNW 5.8 mph - N/A   Clear
5:00 AM 47 °F 43 °F 82% 30.03 in 19 mi WNW 4.6 mph - -   Scattered Clouds
5:00 AM 48.2 °F 42.8 °F 82% 30.03 in 20.0 mi WNW 4.6 mph - N/A   Partly Cloudy
6:00 AM 48.2 °F 42.8 °F 82% 30.04 in 20.0 mi WNW 4.6 mph - N/A   Partly Cloudy
7:00 AM 51.8 °F 44.6 °F 76% 30.04 in 20.0 mi WNW 5.8 mph - N/A   Partly Cloudy
8:00 AM 53.6 °F 44.6 °F 72% 30.03 in 20.0 mi NNW 13.8 mph - N/A   Partly Cloudy
9:00 AM 55.4 °F 46.4 °F 72% 30.02 in 20.0 mi NNW 15.0 mph - N/A   Partly Cloudy
10:00 AM 55.4 °F 46.4 °F 72% 30.01 in 20.0 mi North 9.2 mph - N/A   Partly Cloudy
11:00 AM 59.0 °F 48.2 °F 67% 30.00 in 20.0 mi NNE 10.4 mph - N/A   Partly Cloudy
12:00 PM 60.8 °F 48.2 °F 63% 29.98 in 20.0 mi NNE 9.2 mph - N/A   Partly Cloudy
1:00 PM 62.6 °F 48.2 °F 59% 29.96 in 20.0 mi NNE 8.1 mph - N/A   Partly Cloudy
2:00 PM 62.6 °F 48.2 °F 59% 29.94 in 20.0 mi NNE 6.9 mph - N/A   Scattered Clouds
3:00 PM 64.4 °F 48.2 °F 56% 29.92 in 20.0 mi NNE 6.9 mph - N/A   Scattered Clouds
4:00 PM 64.4 °F 46.4 °F 52% 29.90 in 20.0 mi NE 6.9 mph - N/A   Scattered Clouds
5:00 PM 65 °F 45 °F 37% 29.88 in 19 mi ENE 4.6 mph - -   Scattered Clouds
5:00 PM 64.4 °F 44.6 °F 49% 29.88 in 20.0 mi East 4.6 mph - N/A   Scattered Clouds
6:00 PM 66.2 °F 41.0 °F 40% 29.87 in 20.0 mi East 4.6 mph - N/A   Scattered Clouds
7:00 PM 66.2 °F 41.0 °F 40% 29.86 in 20.0 mi South 2.3 mph - N/A   Scattered Clouds
8:00 PM 64.4 °F 42.8 °F 45% 29.85 in 20.0 mi South 3.5 mph - N/A   Mostly Cloudy
9:00 PM 64.4 °F 41.0 °F 42% 29.85 in 20.0 mi SSW 2.3 mph - N/A   Mostly Cloudy
10:00 PM 62.6 °F 44.6 °F 52% 29.86 in 20.0 mi South 2.3 mph - N/A   Mostly Cloudy
11:00 PM 61 °F 49 °F 56% 29.87 in 19 mi North 10.4 mph - -   Scattered Clouds
11:00 PM 60.8 °F 50.0 °F 68% 29.87 in 20.0 mi North 8.1 mph - N/A   Mostly Cloudy
11:10 PM - - N/A% - 20.0 mi NNW 10.4 mph - N/A Rain Light Rain Showers
11:43 PM - - N/A% - 20.0 mi North 5.8 mph - N/A   Mostly Cloudy